Theta_e
322 321 320 320 320 321 321 321 321 321 322 322 322 323 323 324 324 325 326 326 326 326 326 326 326 327 327 327 328 327 327 328 328 328 328 328 328 328 328 328 327 327 328 328 328 329 328 328 328 328 328 329 330 331 332 332 330 328 328 328 328 329 327 327 328 328 327 328 328 328 328 329 328 328 328 329 329 329 329 329 329 328 326 324 324
320 319 318 319 319 319 319 319 318 318 319 320 320 321 322 323 324 324 324 325 325 324 324 324 325 325 326 326 327 328 328 327 327 327 327 327 327 327 327 327 327 327 327 327 328 328 328 329 329 328 328 329 329 330 330 329 328 328 328 328 328 328 327 327 327 327 327 327 328 328 328 328 328 327 328 328 329 329 329 328 329 328 326 325 325
317 317 318 317 317 317 317 317 317 317 317 317 318 320 321 322 322 322 321 323 323 323 323 323 323 324 325 326 327 327 328 327 327 327 327 327 327 327 327 328 328 328 327 326 327 328 328 328 328 327 328 328 328 328 329 329 328 329 329 327 327 328 327 327 327 326 326 327 327 327 327 328 328 327 328 328 328 328 328 328 328 328 327 326 326
316 316 317 316 316 316 316 315 315 316 315 316 316 318 320 320 321 320 319 320 321 321 322 322 322 323 323 324 325 326 326 326 326 326 327 327 327 327 328 327 327 327 327 327 327 327 328 328 327 327 328 328 328 327 328 328 327 328 328 328 328 328 327 327 326 326 327 327 327 327 327 328 328 328 328 327 327 328 328 328 328 327 327 326 326
316 316 316 316 315 315 314 314 314 314 314 314 314 316 318 318 318 318 317 317 318 320 320 320 321 321 321 322 323 324 323 324 324 325 326 326 326 326 327 327 327 326 326 326 327 327 327 327 326 326 326 327 327 327 327 328 328 328 328 329 328 327 327 326 326 326 327 327 326 326 327 328 328 328 328 327 326 326 327 327 326 326 327 327 326
316 315 315 315 314 314 314 313 313 312 312 313 313 314 315 316 316 316 315 316 317 317 318 319 319 319 319 320 322 323 323 323 324 325 325 325 325 325 326 327 327 327 326 326 327 326 326 326 326 325 326 326 327 327 326 326 328 328 328 328 328 327 326 327 326 327 327 327 327 326 326 327 327 327 327 327 326 326 326 326 326 325 326 327 326
315 315 315 314 314 313 313 312 311 311 311 311 312 312 312 313 314 314 314 316 316 316 316 317 318 318 319 320 321 322 323 324 324 324 325 325 325 326 327 327 328 327 327 326 326 326 326 326 326 326 326 326 326 326 326 325 326 327 327 327 327 326 326 326 327 327 327 327 327 326 325 326 326 325 325 325 325 325 325 325 325 325 326 327 325
315 315 314 314 313 313 312 311 310 310 310 310 311 311 311 311 312 312 314 314 314 314 315 316 317 318 319 319 320 321 322 323 323 323 324 324 324 325 326 327 327 327 326 326 325 326 325 326 326 326 326 326 326 326 326 326 326 326 325 325 325 326 326 326 326 327 327 327 326 325 324 324 324 323 323 324 323 324 325 325 324 324 326 326 323
314 314 313 313 312 312 311 310 309 309 309 309 309 309 309 309 309 311 312 312 312 313 313 315 317 318 318 319 319 321 321 320 321 322 323 323 323 324 325 326 326 325 325 324 324 324 324 324 324 325 326 326 326 327 326 326 326 325 325 325 325 325 326 327 327 327 326 326 325 324 324 323 323 322 322 322 322 323 325 325 325 324 324 324 323
313 313 313 312 311 310 309 309 308 308 308 307 307 307 307 307 308 308 309 309 310 312 313 314 315 316 317 318 318 319 319 318 319 321 322 323 323 324 324 324 324 323 322 322 321 322 322 322 323 325 326 326 326 326 326 326 326 326 326 326 326 326 326 326 326 326 326 325 324 323 323 322 322 322 322 322 322 322 324 324 324 323 323 322 322
313 312 312 311 311 310 309 308 308 307 307 306 306 305 305 306 306 307 307 308 308 310 311 312 312 313 315 316 317 317 316 316 317 319 321 322 322 322 322 322 321 321 320 319 319 320 320 321 322 324 325 326 326 327 327 326 327 327 326 326 327 327 326 325 326 325 325 323 323 323 323 322 321 322 322 322 322 322 322 323 323 322 322 321 320
312 311 311 310 309 309 308 308 307 307 306 305 305 304 304 305 305 305 306 306 306 308 309 309 309 311 313 314 314 315 315 314 315 317 318 319 319 319 319 318 318 318 318 318 319 319 318 319 321 321 321 322 323 324 325 325 326 327 326 326 326 327 326 325 325 324 323 323 323 322 322 322 321 321 321 321 321 321 320 321 321 322 321 321 320
311 310 309 309 308 308 308 307 307 306 305 304 304 304 304 304 304 304 304 305 306 307 307 307 307 309 310 311 312 313 313 313 314 315 315 315 315 315 314 313 314 314 314 314 316 317 317 318 319 319 319 319 320 320 321 322 323 324 325 325 326 327 327 325 324 324 323 323 323 322 321 321 321 321 321 320 321 320 319 318 319 320 321 320 320
309 308 308 307 307 307 307 306 306 305 305 304 304 304 304 303 303 303 303 305 306 306 306 306 306 306 307 308 309 311 311 312 313 314 313 313 313 312 310 309 310 310 310 311 313 315 316 317 318 318 318 318 319 319 320 320 321 321 322 323 323 325 325 324 323 323 322 322 323 322 322 322 322 322 321 320 320 320 318 317 318 319 320 319 319
306 306 306 306 306 306 306 306 305 305 304 303 303 303 303 302 302 302 302 303 304 303 304 304 304 304 306 307 308 309 310 311 312 313 312 312 312 311 311 310 310 310 310 310 311 312 314 316 317 317 317 317 317 318 319 319 320 320 320 320 321 322 322 322 322 322 321 321 321 321 322 322 322 322 321 320 320 320 319 318 318 319 319 318 319
304 304 304 305 305 305 305 304 304 303 302 301 301 301 301 301 301 301 302 302 302 302 302 302 303 303 304 306 307 308 309 310 311 311 311 311 311 311 310 310 310 309 309 308 308 309 311 314 316 317 317 316 316 316 317 317 318 318 318 318 318 319 318 319 320 320 320 321 321 321 321 322 322 322 321 321 320 320 320 319 319 319 318 318 317
303 303 303 303 303 303 303 302 301 301 300 300 300 299 299 299 300 300 301 300 300 300 300 301 301 302 303 304 305 305 306 307 309 309 309 309 309 309 309 308 308 307 307 307 307 306 308 310 313 315 316 316 316 316 316 316 316 316 315 315 315 315 314 315 317 318 319 320 321 321 322 322 322 322 321 321 320 320 320 319 319 319 318 317 315
303 302 302 302 302 302 302 301 301 301 301 301 300 300 299 299 299 299 299 299 299 299 299 300 300 301 301 302 302 303 303 304 306 307 307 307 307 307 307 307 306 305 305 306 306 305 306 307 309 310 311 313 314 315 315 316 316 316 315 315 314 314 313 313 315 316 317 318 319 320 320 320 321 321 321 321 320 319 319 319 318 318 317 316 314
302 302 302 302 302 302 302 302 302 301 301 301 301 301 300 299 299 298 299 298 298 299 299 299 300 300 301 301 301 302 302 302 303 304 304 305 305 304 305 305 304 303 303 304 304 304 304 305 306 306 307 309 311 312 313 314 315 315 314 314 313 313 312 312 313 314 315 315 315 315 316 316 317 318 319 320 319 319 319 320 318 318 317 316 314
301 300 301 301 301 301 301 301 301 301 301 301 301 301 301 300 299 298 298 298 298 299 299 299 299 300 300 301 301 301 301 301 301 302 302 303 303 302 302 302 301 301 301 301 302 302 302 303 303 304 305 306 306 307 308 310 311 312 312 311 311 311 311 310 311 312 312 312 312 312 312 313 313 314 315 317 318 318 319 319 318 318 318 316 315
298 299 300 300 300 301 301 301 301 301 301 300 300 300 300 300 299 298 298 298 298 299 299 299 299 299 300 301 300 300 300 300 301 301 301 301 301 301 301 301 300 300 300 300 300 300 300 301 301 302 303 304 304 304 304 305 306 307 308 308 308 309 310 309 309 309 309 309 309 310 309 309 309 310 311 313 314 315 317 318 318 318 317 316 314
296 297 297 298 299 300 300 301 301 301 301 300 300 300 300 300 299 298 298 298 298 298 297 297 298 298 298 299 300 300 300 300 300 300 300 300 300 300 300 300 300 300 300 300 300 300 300 300 300 301 301 302 302 303 303 303 304 303 304 305 307 308 308 307 307 307 307 306 306 306 305 305 305 307 308 309 310 311 313 314 315 315 314 313 313
296 296 296 296 297 298 298 299 300 301 300 299 299 299 300 300 299 298 298 298 297 297 297 297 297 296 297 297 298 299 300 300 300 300 300 300 300 300 300 300 300 300 300 300 300 300 300 300 300 300 300 300 300 301 301 302 302 302 302 303 304 305 305 305 305 305 305 305 305 305 304 304 304 305 306 306 307 308 308 309 309 309 309 309 310
297 296 296 296 296 296 296 296 297 298 298 297 297 298 299 299 298 298 298 298 297 297 296 296 296 296 296 296 296 297 298 299 300 300 300 300 300 300 300 300 300 300 300 300 300 300 300 301 301 300 300 300 300 300 300 300 300 300 301 301 302 302 302 302 302 302 302 303 303 304 304 304 304 304 304 304 305 305 305 305 305 306 306 307 307
298 297 297 297 296 296 296 295 295 295 295 295 296 297 297 298 298 298 298 298 297 297 296 296 296 296 296 296 296 297 297 299 300 300 300 300 300 300 300 300 300 300 301 301 301 301 301 301 301 301 301 300 300 300 300 299 299 299 299 299 300 300 300 300 300 300 300 301 301 302 303 304 304 303 302 302 302 303 303 303 303 303 304 304 304
298 297 297 297 297 297 296 295 295 295 295 295 295 295 296 296 297 297 297 297 297 297 297 297 296 296 296 296 297 297 298 298 299 299 300 300 300 300 300 300 300 300 301 301 301 301 301 301 301 301 300 300 300 299 299 299 299 299 298 298 298 299 299 299 299 299 299 299 300 300 301 302 303 302 301 301 301 301 301 302 302 302 302 303 303
298 298 297 297 297 297 296 296 296 295 295 295 295 295 295 295 296 296 297 297 297 297 297 297 296 296 296 296 297 298 298 298 298 299 299 299 299 299 299 299 299 299 300 300 300 300 300 300 300 300 300 300 300 299 299 299 298 298 298 298 298 298 298 299 299 299 299 299 300 300 300 301 301 302 302 301 301 301 301 301 301 301 301 301 302
298 298 297 297 297 297 297 296 296 296 296 295 295 295 295 295 295 295 296 296 296 297 297 296 296 295 295 296 297 297 298 298 298 298 298 298 298 298 298 298 298 298 298 298 299 298 299 299 299 299 299 299 299 299 299 299 299 298 298 298 298 298 298 298 298 299 300 300 300 300 300 300 300 300 301 301 301 301 301 301 301 301 301 300 300
299 298 298 297 297 297 297 297 296 296 296 295 295 295 295 295 295 295 295 296 296 296 296 296 295 295 295 296 297 298 297 297 297 297 297 297 297 297 297 297 297 297 297 297 297 297 297 297 297 297 297 297 298 298 298 299 299 299 298 298 298 298 297 297 298 299 300 300 299 299 299 299 299 299 299 299 300 300 301 301 300 300 300 300 300
299 298 298 298 297 297 297 296 296 296 296 296 295 295 295 295 295 295 295 296 296 295 295 295 295 295 295 296 297 297 297 297 296 296 296 296 296 296 296 296 296 296 297 297 297 296 296 296 296 296 296 296 296 296 297 297 298 298 298 298 298 297 297 298 298 298 299 299 299 299 299 299 298 298 298 299 299 299 300 301 300 299 299 300 299
299 299 299 298 298 298 297 297 296 296 296 296 296 295 295 295 295 295 295 295 295 295 295 295 295 295 295 295 296 296 297 296 296 296 296 296 296 295 295 295 295 295 295 295 296 296 296 296 296 296 296 296 296 295 296 296 296 297 297 298 297 297 297 297 297 298 298 298 299 299 298 298 298 298 298 299 298 298 299 300 300 299 299 299 298
300 299 299 299 298 298 298 297 297 296 296 296 296 295 295 295 296 296 296 295 295 295 295 295 295 295 295 295 295 295 296 296 296 296 296 296 296 295 295 295 295 295 294 294 294 295 295 295 295 295 295 295 295 295 295 295 295 296 296 297 297 297 297 297 297 297 298 298 298 298 298 298 298 298 298 298 298 298 298 299 300 300 299 299 298
300 300 299 299 299 299 298 298 297 297 297 297 296 296 295 295 296 296 296 296 296 296 295 295 295 295 295 295 295 295 295 295 295 295 295 295 295 294 294 295 295 295 294 294 294 294 293 294 294 294 294 294 294 294 295 295 295 295 296 296 296 296 296 296 297 297 297 297 297 297 297 298 298 297 297 298 298 298 298 298 299 299 299 298 298
299 299 299 299 299 299 299 299 298 298 298 298 297 296 295 295 295 295 295 296 296 296 296 295 295 295 295 295 295 295 295 295 294 294 294 294 294 293 293 294 294 295 294 294 294 294 293 293 294 294 294 294 294 294 294 294 294 295 295 295 295 296 296 296 296 296 297 297 297 297 296 297 297 297 297 297 297 298 297 297 297 298 297 297 298
299 298 298 298 298 298 298 298 298 297 297 298 297 296 295 295 295 295 295 296 296 296 296 295 295 295 295 294 294 294 294 294 294 294 294 294 293 293 293 292 293 294 294 294 294 293 293 293 294 294 294 294 294 294 294 294 294 294 294 294 294 294 295 295 295 295 296 296 296 296 296 296 296 296 296 296 297 297 297 297 297 296 296 297 297
298 298 298 298 298 298 298 298 297 297 297 297 297 296 295 295 295 295 295 296 296 296 296 295 295 295 295 294 294 294 294 294 294 294 294 293 293 293 293 292 291 292 293 294 293 293 293 293 293 293 294 294 293 294 294 293 293 293 293 293 293 293 293 294 294 294 295 295 296 296 295 296 296 296 296 296 296 296 297 297 296 296 296 296 296
298 298 298 298 298 298 297 297 297 297 297 297 297 296 295 295 295 295 295 295 296 296 296 296 295 295 295 294 294 294 293 293 294 294 293 293 293 293 293 292 291 291 292 293 293 292 292 292 293 293 293 293 293 293 293 293 293 293 293 293 293 293 293 293 293 293 293 294 295 295 295 295 296 296 296 295 295 295 296 296 296 295 295 295 295
298 298 298 297 297 297 297 297 297 297 296 296 296 296 296 296 295 295 295 295 295 295 295 295 295 295 295 294 294 294 294 293 294 293 293 293 293 292 292 292 291 291 291 292 292 291 291 291 292 292 292 292 292 293 293 293 293 293 293 293 293 293 293 293 293 294 293 293 293 294 294 295 295 295 295 295 294 294 294 295 295 295 294 294 293
298 298 297 297 297 297 297 297 296 296 296 296 296 296 296 296 296 295 295 295 295 295 295 295 295 295 295 295 294 294 294 294 293 293 293 293 293 292 292 292 292 291 291 291 291 290 290 290 290 292 292 291 291 292 292 292 292 293 293 293 293 293 293 293 293 293 293 293 293 293 293 293 294 294 294 294 293 293 293 293 294 294 293 293 293
298 297 297 297 297 297 297 297 296 296 296 296 296 296 296 296 296 296 296 296 296 296 296 296 296 295 295 295 295 294 294 294 294 293 293 293 293 293 292 292 292 292 292 292 291 291 290 290 289 290 290 290 290 291 292 292 291 291 292 293 293 293 293 293 293 293 293 293 292 292 292 292 292 293 293 292 292 292 292 292 292 293 292 292 292
298 298 297 297 297 297 297 297 297 296 296 296 295 296 296 296 296 296 296 296 296 296 296 296 296 296 295 295 295 295 294 294 294 294 294 293 293 293 293 293 292 292 292 292 292 291 291 291 290 289 288 287 288 290 291 291 290 290 291 292 292 292 292 292 293 292 293 292 292 292 292 292 292 292 292 292 292 292 292 292 291 291 292 292 292
297 297 297 297 297 297 297 297 297 297 296 296 296 296 296 296 296 296 296 296 296 296 296 296 296 296 296 296 296 295 295 294 294 294 294 294 294 294 293 293 293 292 292 292 292 292 292 291 291 290 289 287 287 288 289 289 289 290 290 290 291 291 290 290 291 291 292 292 292 292 291 292 292 292 292 292 292 292 292 292 291 291 291 291 291
297 297 297 297 297 297 297 297 297 297 296 296 296 296 296 296 296 296 296 296 296 296 296 296 296 296 296 296 296 296 295 295 295 294 294 294 294 294 294 293 293 293 293 292 292 292 292 292 291 291 291 289 288 288 287 287 288 288 288 288 288 287 287 287 287 288 290 290 291 292 291 291 291 292 292 292 292 292 292 291 291 291 291 291 291
298 297 297 297 297 296 297 297 297 297 297 296 296 296 296 296 296 296 296 296 296 296 296 296 296 296 296 296 296 296 296 295 295 295 294 294 294 294 294 294 293 293 293 293 292 292 292 292 292 291 291 290 289 288 287 286 286 286 286 285 285 285 285 284 284 284 285 286 287 290 292 291 290 291 291 291 291 292 292 291 291 291 291 291 291
298 297 297 297 297 297 297 297 297 297 297 297 297 297 297 296 296 296 296 296 296 296 296 296 296 296 296 296 296 296 296 296 296 295 295 295 294 294 294 294 294 293 293 293 293 293 292 292 292 292 291 291 290 289 289 288 287 286 286 285 285 284 284 283 283 283 283 282 283 287 291 292 291 290 290 291 291 291 292 291 291 291 292 291 291
298 297 297 297 297 297 297 297 297 297 297 297 297 297 297 297 297 296 296 296 296 296 296 296 296 296 296 296 296 296 296 296 296 295 295 295 294 294 294 294 294 294 294 293 293 293 293 292 292 292 291 291 291 290 290 289 289 289 288 288 287 286 285 284 283 283 282 282 282 285 289 292 292 291 290 290 290 291 291 291 291 291 291 291 291
298 298 297 297 297 297 297 297 297 297 297 297 297 296 296 296 296 297 296 296 296 296 296 296 296 296 296 296 296 296 295 295 295 295 295 295 295 295 295 294 294 294 294 294 294 293 293 293 293 292 292 291 291 291 291 290 289 289 289 289 288 287 285 284 283 283 282 282 282 282 285 289 291 292 291 290 290 290 290 290 290 290 291 291 291
298 298 297 297 297 297 297 297 297 297 297 297 297 296 296 296 296 296 296 296 296 296 296 296 296 296 296 296 295 295 295 295 295 295 295 295 295 295 295 295 294 294 294 294 294 294 293 293 293 293 292 292 291 291 291 290 290 289 289 289 289 288 287 286 284 283 282 282 282 282 282 284 288 291 291 290 290 290 290 290 290 290 290 290 290
297 297 297 297 297 297 297 297 297 297 297 297 297 297 296 296 296 296 296 296 296 296 296 296 296 296 295 295 295 295 295 295 295 295 295 295 295 295 295 294 294 294 294 294 294 294 294 294 294 293 293 292 291 291 291 291 290 290 290 290 289 289 289 288 287 285 284 282 282 283 282 282 284 287 290 290 289 290 290 290 290 290 290 290 290
297 297 297 297 297 297 297 297 297 297 297 297 297 297 297 296 296 296 296 296 296 296 295 296 296 295 295 295 295 295 295 295 295 295 294 294 294 295 294 294 294 294 294 294 294 294 294 294 294 293 293 293 292 292 291 291 291 290 290 290 290 289 289 289 289 288 286 284 282 283 283 282 283 285 288 289 289 289 289 289 290 290 289 289 290
297 297 297 297 297 297 297 297 297 297 297 297 297 297 297 297 296 296 296 296 296 296 296 296 296 295 295 295 295 295 295 295 294 294 294 294 294 294 294 293 293 293 294 294 294 294 294 294 294 293 293 293 292 292 292 292 291 290 290 290 290 289 289 289 289 289 288 286 283 282 283 282 282 284 287 288 288 288 289 289 289 289 289 289 289
Wind_Speed
14 15 14 15 16 16 15 14 13 13 13 13 14 14 14 16 17 18 19 20 21 20 21 20 19 19 19 19 18 17 16 15 13 12 11 10 9 7 7 7 8 8 8 8 13 14 15 16 17 19 19 18 20 22 22 24 23 21 19 19 20 21 20 17 10 6 10 18 24 24 23 25 28 30 31 31 29 27 27 28 27 25 26 27 25
15 14 14 15 16 16 16 15 15 14 13 13 14 14 15 15 15 17 19 19 19 20 21 21 20 20 20 19 18 17 16 15 14 12 10 10 10 9 7 6 7 6 4 2 5 7 8 8 9 12 16 17 17 16 18 21 21 21 21 18 19 21 21 20 15 9 10 15 21 22 21 24 27 27 28 30 30 28 28 28 26 23 25 26 25
15 15 16 16 17 17 17 16 16 16 15 15 15 15 15 14 15 18 20 19 18 19 21 21 21 21 21 21 19 18 16 15 14 14 13 12 11 10 8 7 7 6 4 3 1 0 1 4 5 7 10 13 13 11 12 18 20 20 20 19 21 23 23 21 17 13 13 15 19 21 20 22 24 25 26 28 27 26 26 26 24 23 24 26 26
16 16 16 17 18 18 18 18 17 17 17 17 17 16 15 14 16 20 21 21 20 20 20 21 21 21 22 21 20 19 18 16 15 16 15 14 13 12 11 9 7 5 5 4 3 3 3 2 4 5 7 10 11 10 9 12 16 18 19 21 24 24 23 22 18 14 14 16 18 20 20 21 21 22 24 24 22 24 25 24 23 24 24 25 26
18 18 18 18 18 19 19 19 18 18 18 18 19 19 18 17 19 20 22 23 23 23 23 22 22 23 23 22 20 19 19 18 16 15 15 15 14 13 13 12 10 5 3 4 4 3 3 2 4 6 7 8 10 10 10 11 14 18 20 21 21 17 16 20 19 14 14 15 14 15 18 20 19 21 25 23 19 20 23 23 22 22 23 22 21
19 19 18 19 19 20 20 18 18 18 18 18 19 21 21 20 21 22 23 25 26 27 27 26 25 25 25 24 21 20 20 20 18 16 15 15 14 13 11 11 11 8 5 4 5 4 3 2 4 4 4 6 7 9 10 13 15 18 20 21 19 14 15 19 19 15 14 14 14 15 19 22 21 21 24 25 23 22 23 22 21 22 22 20 18
18 18 18 19 20 20 19 18 18 18 18 19 20 21 23 23 23 24 25 25 26 28 29 29 28 28 27 26 24 23 21 21 20 19 17 16 15 14 13 11 11 11 9 7 5 5 4 4 4 1 2 4 6 8 9 12 14 15 17 18 17 17 18 20 18 16 17 17 17 17 19 21 20 19 22 24 25 26 26 23 20 21 22 20 19
19 18 19 20 20 19 18 18 19 19 19 20 22 23 24 25 25 25 25 26 27 28 29 30 30 29 29 28 26 24 22 22 21 20 18 17 16 16 16 14 13 14 13 12 10 8 6 6 6 3 2 4 4 4 4 8 10 12 15 17 17 17 19 20 19 17 18 19 18 17 18 17 15 16 20 21 21 23 26 26 23 23 23 21 19
19 20 20 20 20 19 19 20 20 21 21 22 23 24 24 25 25 26 26 27 28 28 29 30 30 30 29 28 27 25 25 25 23 19 17 17 16 16 17 16 16 17 17 17 15 13 11 11 9 5 5 5 3 1 2 6 9 11 14 16 16 16 17 19 20 18 18 19 17 17 19 18 17 19 21 22 22 23 26 27 25 24 24 22 20
20 20 21 20 20 20 22 23 23 24 24 23 23 24 24 25 25 26 27 27 28 29 30 31 32 31 30 29 28 27 27 26 23 20 18 18 18 18 18 17 17 18 19 19 18 16 14 14 13 10 7 5 4 3 3 6 8 9 11 13 16 17 18 20 21 20 20 19 17 19 19 18 21 25 25 26 26 25 27 27 24 23 22 19 16
21 21 20 19 19 21 23 24 25 25 24 24 24 24 25 26 27 28 28 29 29 30 31 32 32 32 31 30 28 27 27 26 24 23 22 22 23 23 22 21 20 20 20 20 20 18 16 15 15 14 11 6 2 5 5 5 7 8 10 13 15 18 22 22 20 19 18 15 15 20 21 19 23 26 27 27 26 26 28 28 25 23 22 18 12
21 21 20 20 20 22 23 24 24 24 23 24 24 24 25 27 28 29 29 30 30 32 33 33 33 33 32 30 29 27 26 25 24 24 25 26 27 27 27 26 26 25 25 24 22 20 18 16 16 16 14 10 5 1 3 4 5 7 9 11 12 15 19 19 17 17 17 17 17 20 20 18 20 24 27 28 28 27 27 28 28 27 26 22 18
22 21 21 21 21 22 23 24 24 24 23 24 24 26 28 28 28 29 29 30 31 33 34 34 34 34 33 32 30 28 27 26 25 24 25 27 28 29 29 29 30 29 29 29 26 23 21 19 18 18 16 13 11 8 7 6 6 6 5 6 7 8 9 10 11 13 15 18 19 20 21 20 21 23 24 25 27 27 26 26 29 30 28 26 22
22 22 21 21 21 22 23 23 23 23 23 25 27 28 30 29 29 29 30 32 34 35 34 35 35 35 34 33 32 30 28 27 25 25 26 26 28 30 31 32 33 33 33 33 30 27 25 22 19 18 17 16 14 13 12 11 10 10 9 7 6 5 5 7 8 8 10 14 16 18 21 22 23 23 20 19 23 25 25 26 27 27 26 23 20
23 23 22 22 22 22 23 24 24 23 23 25 27 28 29 29 29 30 32 34 34 34 35 36 36 36 36 35 34 32 29 27 26 27 27 27 29 31 33 34 35 36 36 36 35 32 29 26 23 20 19 19 18 17 17 16 15 16 16 16 13 10 7 5 4 4 6 9 11 13 15 16 19 20 18 17 18 19 20 22 24 24 22 19 17
24 24 24 24 24 24 25 25 25 25 25 26 27 27 27 28 28 30 32 33 34 34 35 36 36 36 37 37 37 34 31 28 27 27 27 28 30 32 34 35 36 37 37 38 39 38 34 30 27 24 22 21 20 21 21 22 23 24 24 23 21 19 18 14 9 7 5 6 8 10 12 13 15 15 13 13 16 16 15 17 21 23 22 19 16
25 25 26 26 26 26 27 27 27 27 28 29 29 28 27 27 27 28 31 32 32 33 34 34 35 36 37 38 38 36 33 30 28 27 27 28 30 32 34 35 37 38 38 38 39 40 38 35 31 28 24 21 19 20 21 22 24 25 24 24 24 23 22 19 16 15 13 10 9 9 10 12 14 14 13 12 14 17 18 19 23 26 25 19 14
25 25 24 24 24 25 25 26 26 26 27 28 28 28 28 28 27 28 30 30 30 31 31 33 34 36 37 37 36 36 35 32 30 29 29 28 29 31 32 34 36 36 36 37 37 38 39 37 35 32 28 23 18 17 16 17 20 20 19 20 21 21 19 17 16 15 15 14 13 12 13 13 12 12 12 12 15 19 21 21 24 27 25 19 15
25 25 23 22 22 22 22 23 23 23 23 23 24 25 26 27 28 29 30 31 31 31 32 34 35 35 36 35 35 36 35 33 32 31 31 30 31 31 32 34 35 34 34 35 35 35 36 36 35 34 32 28 24 21 19 17 19 19 17 18 20 19 15 14 15 14 13 15 16 15 16 15 13 11 10 11 15 17 16 16 20 25 24 22 21
24 23 23 22 22 23 23 24 24 25 25 24 24 24 24 26 28 29 30 31 32 32 33 34 34 34 34 34 35 35 34 33 33 32 32 32 32 32 33 33 31 31 33 34 34 34 33 33 32 31 31 31 30 30 28 26 24 22 20 21 20 17 14 15 16 15 16 17 18 18 18 17 14 12 10 7 7 8 8 10 17 23 23 23 26
23 23 23 23 23 23 24 25 26 27 26 26 26 26 25 26 28 29 30 31 32 33 33 33 33 33 32 32 32 32 31 31 31 32 32 32 32 33 33 31 28 29 31 33 33 33 33 32 30 28 28 28 30 31 32 32 31 29 26 24 20 14 15 17 17 18 19 19 18 18 18 18 17 16 14 11 8 5 3 8 13 15 17 20 22
26 26 26 25 25 25 25 25 26 26 25 25 26 26 25 26 28 29 30 31 32 32 31 31 32 32 31 30 30 29 28 28 29 30 30 30 31 31 31 30 28 29 30 31 30 31 30 30 29 28 27 27 27 27 29 30 32 32 30 27 23 19 18 20 20 20 21 21 20 20 19 18 19 19 18 16 14 10 6 5 6 7 10 13 15
30 30 30 29 29 28 27 26 26 25 24 25 26 27 25 25 28 29 30 31 32 31 30 30 31 31 31 30 29 28 27 26 26 27 28 28 29 29 29 28 28 28 29 29 27 27 27 27 27 27 27 28 27 27 27 27 27 27 27 27 27 26 25 25 24 24 24 23 22 22 20 19 19 18 17 16 14 12 11 10 9 8 10 10 9
33 32 32 32 32 32 31 30 29 28 27 27 28 28 27 27 28 29 30 31 31 30 30 30 31 31 31 31 30 29 27 26 26 25 26 26 27 27 27 26 26 26 26 25 24 23 24 24 24 25 25 26 26 27 28 28 27 25 24 23 23 24 26 27 27 27 27 26 24 21 18 16 16 17 16 15 14 13 13 14 14 13 13 13 11
33 33 33 33 34 34 35 34 33 32 31 31 31 30 29 29 29 29 30 31 31 30 30 30 30 30 30 30 31 30 29 28 28 28 28 28 27 27 26 26 25 25 25 24 23 22 22 22 22 23 24 24 23 24 25 25 25 25 25 24 23 22 22 23 24 25 27 27 25 21 17 13 11 12 12 11 11 13 14 15 16 16 15 15 14
32 32 33 33 34 35 36 36 36 36 35 35 33 31 29 29 29 28 28 29 29 29 29 30 30 29 29 29 29 29 30 29 30 30 30 30 29 28 27 26 25 24 24 24 23 23 23 23 23 24 25 24 24 24 23 22 21 22 23 24 24 22 21 21 21 22 21 20 20 19 17 13 9 8 8 7 6 8 9 10 13 14 14 14 15
31 30 31 32 33 35 35 35 36 36 36 37 36 34 31 30 28 27 27 27 28 28 29 29 29 28 28 26 26 26 27 27 27 27 27 27 27 26 26 26 25 25 25 25 24 24 23 22 23 23 23 23 23 23 22 22 21 21 21 21 21 20 18 18 17 16 15 13 13 14 14 13 11 10 9 6 5 5 4 4 7 11 11 10 14
30 29 30 32 32 33 34 34 35 35 35 35 36 35 34 33 31 28 26 25 26 27 27 27 27 27 27 26 25 25 25 25 26 26 25 25 25 24 25 25 25 26 26 26 25 24 24 24 24 24 24 24 24 23 22 22 22 21 20 20 19 17 15 14 14 14 13 11 10 10 10 11 12 13 13 11 7 4 4 4 6 10 12 12 15
29 29 29 30 31 31 31 32 33 33 33 33 33 33 33 34 32 30 27 26 26 26 25 25 25 26 27 27 25 24 24 25 25 25 25 25 25 24 24 24 24 24 25 24 24 24 26 27 28 28 28 28 28 26 25 23 22 21 20 19 19 18 16 15 15 15 13 11 10 9 9 9 10 11 12 12 11 7 3 5 7 9 12 15 17
29 28 27 28 29 29 30 30 31 32 32 31 31 31 31 31 31 30 28 27 26 26 27 27 27 27 28 28 26 25 24 24 24 24 24 24 24 25 25 24 23 23 22 22 22 24 27 28 28 28 28 29 29 28 27 26 24 22 20 19 19 20 19 17 17 15 13 12 11 11 9 8 9 9 8 9 10 9 5 4 8 9 12 17 19
27 26 25 25 25 26 27 28 28 29 30 29 29 29 28 28 28 28 27 26 26 27 28 29 29 29 28 28 27 25 23 22 22 22 22 21 22 23 24 24 24 23 22 23 24 26 26 26 26 26 26 27 27 27 27 27 25 23 20 19 18 19 20 18 16 14 13 13 12 11 10 10 10 10 8 8 9 9 6 1 7 10 11 17 20
24 23 23 23 22 22 23 24 25 27 27 27 26 26 26 25 25 24 24 24 24 25 25 26 27 27 26 26 26 25 23 22 21 21 20 19 20 20 21 21 22 22 23 25 26 26 25 24 24 24 24 26 26 26 26 26 24 22 20 19 18 19 19 19 16 14 13 13 12 11 11 10 10 10 8 7 8 9 6 1 6 9 11 15 17
24 22 21 21 20 19 19 19 21 22 23 23 23 23 23 23 22 21 21 21 21 21 21 22 23 24 24 24 23 23 22 22 21 21 20 20 20 20 21 20 19 19 22 24 25 24 24 24 23 22 22 23 24 25 25 25 24 22 20 19 19 19 18 18 16 15 13 13 12 13 12 9 8 9 8 5 6 8 7 5 7 10 12 14 14
25 24 22 21 20 18 17 17 17 18 18 18 18 20 21 21 21 20 20 20 21 20 20 20 20 20 21 21 20 20 20 20 21 21 20 20 19 20 22 21 20 19 20 22 23 23 23 23 23 22 22 21 21 23 24 24 24 23 21 20 20 19 17 16 16 15 14 12 12 13 14 10 7 7 8 6 6 6 8 10 11 13 14 14 13
25 24 23 22 21 20 19 18 18 18 18 18 18 19 20 20 21 21 21 21 22 21 20 19 18 18 19 19 19 19 18 19 19 20 19 19 18 19 23 25 23 20 19 20 21 21 21 21 21 21 21 21 21 22 24 24 24 24 24 22 22 21 19 19 18 16 13 12 12 13 13 11 7 6 7 8 7 7 9 11 12 12 14 14 13
23 23 22 21 22 22 21 21 20 20 20 19 19 20 21 21 21 21 21 21 21 21 19 18 16 15 16 17 18 19 18 17 17 17 18 19 18 19 23 25 23 20 18 17 18 20 20 20 19 19 19 19 20 21 23 24 24 24 23 22 22 22 23 23 22 19 16 13 11 11 11 8 7 7 8 9 8 6 8 10 11 11 12 13 13
23 23 22 21 21 21 20 20 19 19 19 19 20 21 21 22 22 21 21 20 19 18 17 15 14 13 14 15 16 17 17 16 15 15 16 18 18 19 22 23 22 20 17 16 17 18 19 19 18 18 18 18 18 19 20 22 23 23 22 22 22 22 23 23 23 23 22 18 14 11 9 6 7 7 7 8 8 6 7 10 12 13 14 14 14
22 22 22 21 21 21 20 19 18 18 18 19 19 19 19 20 21 21 21 20 18 17 15 13 12 11 11 11 12 14 14 14 14 14 15 16 18 18 19 20 21 19 17 15 15 16 17 17 17 16 16 17 17 17 18 19 20 20 20 21 21 21 21 22 22 22 23 22 19 15 10 8 9 7 6 7 7 8 8 10 11 13 14 13 13
22 22 21 21 20 20 19 18 17 17 17 18 18 18 17 18 19 19 18 17 16 15 14 12 11 10 9 8 9 11 12 12 13 13 13 14 15 16 17 18 19 19 18 17 16 15 16 16 15 14 14 15 15 15 16 17 18 18 18 19 20 20 21 22 22 21 22 23 21 18 13 9 8 8 8 9 9 9 9 9 8 9 10 10 11
22 22 20 19 19 18 17 16 16 16 16 17 17 17 16 15 15 16 15 14 13 12 11 10 10 9 8 7 7 8 10 11 10 10 10 11 12 14 14 14 15 17 18 18 17 16 16 16 15 13 12 13 13 13 13 14 16 17 18 17 18 18 19 19 20 20 20 20 20 18 15 10 8 8 8 8 7 7 7 7 7 7 8 9 11
20 19 18 17 17 18 17 16 15 15 16 15 16 17 16 14 13 13 11 9 9 9 8 8 8 8 7 6 5 6 8 8 8 7 8 9 10 11 12 12 12 13 15 16 17 17 17 17 17 16 15 13 10 9 11 12 14 15 16 16 16 16 17 17 17 18 18 18 18 18 16 12 9 7 6 6 6 6 6 6 6 6 6 7 8
19 18 16 16 16 16 17 17 17 17 17 17 15 14 13 11 11 11 9 7 6 5 5 5 6 5 5 4 4 3 5 5 5 5 6 6 7 9 10 10 9 10 11 12 14 15 16 17 18 18 18 17 12 9 9 11 12 13 14 15 15 15 16 16 16 16 16 16 15 16 15 13 11 8 6 5 5 5 4 5 5 6 5 5 5
19 18 17 16 16 17 17 16 17 17 18 17 15 12 10 9 9 9 7 6 4 3 2 2 2 3 3 3 2 2 2 2 3 3 4 4 4 5 7 8 8 8 8 9 11 12 13 14 16 17 18 18 15 11 10 10 11 12 12 13 14 15 16 16 16 16 15 14 14 13 13 12 11 10 8 6 4 4 3 3 4 5 5 5 5
20 18 18 18 18 19 18 17 15 15 15 14 12 11 9 7 7 6 4 4 4 3 2 2 2 2 3 3 2 2 1 1 1 1 1 2 3 3 4 6 7 6 6 7 8 9 10 11 13 14 15 17 16 13 11 10 10 11 12 13 14 14 15 16 16 15 15 14 12 10 10 11 12 11 9 7 5 3 3 3 4 4 4 5 6
22 19 18 19 19 19 19 17 15 14 13 12 11 11 8 6 5 4 2 1 1 2 2 3 3 3 3 4 4 3 2 1 0 1 0 1 2 2 3 4 5 5 5 6 7 7 8 9 10 11 12 14 16 15 14 13 12 11 12 13 13 14 14 14 14 14 14 13 12 9 7 7 9 10 9 9 7 4 3 3 3 4 6 7 7
22 20 18 18 18 17 17 15 13 12 11 11 11 11 10 8 5 3 2 3 3 3 2 4 6 6 6 6 5 4 3 2 1 1 1 0 1 2 3 4 3 4 5 6 7 7 6 7 8 9 10 12 13 14 15 16 15 13 13 13 13 14 13 13 13 13 13 13 12 9 6 5 6 7 7 7 7 6 4 3 3 4 5 6 5
21 22 19 17 17 16 15 14 13 12 11 10 10 9 8 7 7 5 2 3 6 6 6 7 8 8 7 6 5 4 4 3 3 2 1 0 1 2 3 3 3 4 5 5 5 6 6 7 8 8 8 9 10 12 14 16 16 15 15 15 14 14 13 12 13 13 13 13 13 11 8 6 5 4 5 5 4 4 4 4 3 2 3 4 4
19 23 22 18 17 17 16 14 14 13 11 10 9 7 6 6 6 6 5 5 7 9 9 9 8 7 6 5 4 3 3 3 2 2 1 1 3 3 3 3 3 5 6 6 5 5 6 7 8 8 8 8 8 9 12 14 15 15 15 16 15 14 14 13 13 13 13 13 13 12 10 8 6 4 4 4 4 2 2 2 2 2 0 3 5
16 22 23 21 18 16 16 15 14 12 10 10 10 10 9 9 8 8 7 7 8 9 9 8 8 7 7 5 4 3 4 3 2 1 1 1 2 3 3 3 3 5 6 7 6 6 6 7 7 8 8 8 8 8 10 12 12 13 14 15 15 15 15 14 14 13 13 13 14 13 11 9 6 5 4 4 4 4 4 3 3 2 2 1 3
13 16 19 20 18 15 14 15 15 13 11 10 10 9 8 8 8 8 8 8 8 8 8 7 8 9 8 6 4 3 3 3 4 3 2 1 2 3 3 3 4 5 6 6 7 8 8 8 8 8 8 8 8 8 9 11 11 10 11 13 14 15 15 15 15 15 15 14 14 14 13 9 6 5 4 4 3 4 4 5 5 5 3 2 2
12 10 11 14 16 15 14 15 15 14 13 12 11 10 8 8 9 9 9 9 8 8 7 6 7 8 7 5 3 2 3 3 5 4 3 2 2 3 3 3 5 5 6 6 7 8 8 8 8 8 8 8 8 8 9 10 10 9 9 11 13 14 15 15 15 16 16 16 15 15 13 10 6 4 4 3 3 3 4 4 5 5 6 5 4
Wind_Direction
74 69 64 59 58 60 57 54 53 49 42 37 35 35 32 26 25 28 28 28 25 20 18 20 22 21 18 18 19 17 13 10 0 350 348 352 359 353 334 331 333 328 310 250 219 212 212 216 222 223 223 229 228 223 219 216 215 214 212 211 209 213 216 211 203 176 188 204 204 203 208 205 199 200 203 206 208 208 213 215 212 209 208 208 208
73 67 63 60 59 59 55 48 42 37 35 33 31 34 35 31 31 33 31 32 31 25 22 23 24 24 22 21 23 23 23 21 12 5 6 8 13 13 355 344 347 355 26 132 196 206 204 210 231 233 228 231 234 230 220 209 206 210 212 210 210 213 212 207 198 178 180 198 197 195 200 201 198 199 203 206 206 206 211 212 210 208 208 210 211
71 67 67 64 60 58 53 44 37 34 35 35 34 36 39 39 41 42 39 40 40 34 30 29 28 29 30 28 27 27 29 31 26 24 24 21 24 25 15 3 355 348 5 46 92 132 236 227 242 241 227 230 243 252 228 201 197 206 208 205 209 214 211 204 199 186 179 192 197 192 190 196 199 200 204 208 205 203 206 207 207 207 207 210 212
72 73 71 64 59 57 51 45 42 42 43 44 44 46 48 51 53 51 47 45 45 41 36 34 33 35 36 34 34 35 36 37 35 35 35 33 35 38 34 27 12 343 332 352 8 1 351 297 243 241 231 229 236 246 232 203 198 205 206 204 210 215 211 207 210 203 185 188 198 195 188 191 197 201 203 206 207 202 202 205 205 203 207 212 212
79 77 72 66 62 59 55 52 50 50 49 49 50 52 55 57 57 56 52 49 48 46 42 39 39 41 40 38 38 39 38 37 37 41 44 41 37 36 35 37 36 27 356 357 10 3 340 300 278 273 258 240 233 233 225 207 200 207 211 211 211 211 204 203 212 217 203 191 187 188 189 188 192 202 205 206 207 200 199 204 203 199 207 214 215
79 77 72 68 65 60 56 54 51 51 52 53 54 55 56 58 59 58 57 55 54 52 49 46 46 46 44 43 44 43 40 39 41 47 50 46 39 33 30 33 38 42 43 36 30 21 357 297 276 260 244 246 243 236 225 210 205 211 215 213 207 202 204 208 209 212 209 197 180 181 192 191 188 198 206 206 201 193 192 201 204 203 208 211 212
79 78 74 69 64 59 55 53 53 54 55 58 61 60 58 60 62 61 60 59 58 56 53 51 50 48 46 46 46 46 46 45 47 51 53 49 44 40 39 41 44 46 49 50 37 17 3 341 321 252 224 273 255 237 228 214 210 219 224 217 207 203 212 218 214 206 201 194 184 181 191 195 189 191 202 203 196 190 189 190 194 200 207 210 210
80 77 74 69 62 58 56 55 56 58 59 63 66 66 64 62 62 63 62 61 59 58 56 54 53 51 49 48 46 46 49 47 45 48 51 50 46 46 49 47 44 46 51 52 44 28 13 354 338 315 285 286 250 218 220 211 205 218 227 223 212 202 205 213 215 209 198 190 186 180 182 190 189 186 192 193 187 187 189 188 185 191 200 206 210
79 76 74 69 63 60 60 59 60 61 63 64 64 65 64 61 60 61 61 60 59 59 58 57 56 54 52 50 47 48 48 44 40 42 48 52 53 58 63 59 49 45 47 49 47 41 36 32 22 357 318 294 265 196 206 216 212 212 218 224 220 210 205 204 205 203 193 185 180 175 178 185 185 183 188 190 187 188 191 190 188 191 196 201 207
81 78 74 70 66 67 66 64 64 63 63 63 62 62 62 60 59 59 59 59 58 59 59 58 56 55 53 51 49 49 48 44 44 47 52 57 62 67 71 68 59 51 45 44 44 42 38 36 33 22 3 329 285 265 233 221 221 216 215 220 220 218 215 205 198 197 192 184 176 175 180 185 185 186 191 195 194 191 191 190 187 186 188 191 201
83 79 75 72 71 72 69 67 66 64 62 62 62 61 61 61 60 59 59 58 58 58 59 58 55 54 54 52 50 49 48 46 48 55 61 64 66 68 68 66 62 57 50 46 44 43 42 38 37 38 39 32 311 269 256 239 236 228 217 212 211 216 216 206 193 187 184 180 179 183 186 187 188 191 193 193 193 191 192 192 186 180 180 181 185
82 79 76 75 76 75 72 70 67 64 62 62 61 62 63 62 60 59 58 57 57 59 59 57 55 54 55 55 52 51 50 48 51 59 66 70 71 71 69 66 63 59 55 53 50 49 51 53 56 57 56 57 66 106 203 210 219 215 211 212 213 216 216 209 200 191 182 179 186 191 192 187 184 191 194 191 190 190 191 193 190 185 185 186 186
83 80 77 78 78 77 75 73 69 67 65 64 63 64 64 63 60 59 59 58 59 60 59 57 55 55 55 55 54 54 53 51 52 57 63 70 73 72 68 64 62 60 56 53 53 53 55 60 63 59 53 54 59 66 85 104 116 131 161 197 209 216 219 215 213 206 192 188 189 190 192 188 184 189 192 189 188 187 187 189 191 191 191 191 191
84 82 80 80 79 79 78 76 72 70 68 66 66 66 66 65 64 63 62 61 60 59 58 57 56 55 54 55 55 56 56 54 54 56 58 62 66 67 64 60 58 57 53 51 50 52 55 59 60 55 51 52 53 55 62 72 80 87 92 100 120 163 185 188 196 196 190 192 189 182 182 182 180 181 180 179 184 187 187 186 186 186 186 185 188
84 83 83 82 82 82 82 81 79 76 74 71 69 68 68 67 66 66 65 64 62 61 59 59 58 56 55 56 56 57 56 57 58 60 60 61 62 63 61 59 56 54 52 49 47 48 52 59 62 58 55 55 57 61 66 70 74 77 81 82 84 90 100 118 157 183 199 207 200 187 182 177 172 170 168 169 172 174 180 184 181 178 173 166 170
84 84 84 84 85 86 86 85 83 80 79 76 73 70 69 69 69 69 69 68 65 63 61 60 59 59 58 59 58 57 56 56 58 60 62 63 64 63 62 59 57 54 52 49 47 45 46 52 60 64 64 63 63 67 71 73 74 74 75 77 78 77 75 75 86 107 142 185 193 195 196 194 191 189 190 189 180 174 170 163 163 165 159 150 154
87 86 86 86 87 87 87 86 84 82 80 77 75 72 71 70 70 71 71 69 67 64 63 61 60 60 60 60 59 59 57 57 57 58 59 60 62 63 63 61 59 56 53 51 50 48 46 47 53 60 66 67 69 73 73 73 73 72 71 74 76 74 72 73 82 91 97 109 128 151 167 181 193 197 201 202 198 196 188 169 165 167 160 152 156
91 90 89 89 89 89 88 87 86 84 81 79 77 74 71 70 70 72 72 70 68 67 65 64 62 62 62 61 60 60 59 59 60 61 60 60 61 62 64 64 62 59 56 54 52 50 48 47 49 53 56 58 64 70 70 71 75 73 68 68 69 66 66 72 78 81 85 91 101 116 124 131 147 162 173 180 182 190 193 186 179 174 167 165 165
93 93 93 93 93 92 91 90 88 86 85 82 80 77 74 72 72 73 73 72 70 69 68 67 65 63 64 63 63 62 60 59 60 62 63 64 64 64 64 65 63 61 59 57 54 50 48 47 47 49 51 53 56 60 62 68 75 74 69 67 63 57 60 74 81 80 80 80 80 82 86 91 101 116 135 158 168 178 192 198 190 182 177 175 169
96 97 98 98 97 95 93 92 90 89 88 86 85 84 81 78 76 76 75 74 73 71 69 69 67 65 64 65 64 63 61 60 60 61 62 64 64 64 64 62 61 60 59 58 56 53 50 47 45 44 46 49 51 54 57 61 66 66 62 59 57 57 71 83 85 84 82 77 74 70 68 68 71 77 87 109 142 166 192 200 194 192 190 183 174
101 103 102 101 99 96 94 93 92 91 91 90 90 89 86 83 80 79 77 76 75 73 71 70 68 66 64 64 63 62 61 62 62 62 63 63 63 64 63 61 59 59 60 59 57 55 52 50 47 44 43 45 46 48 50 53 58 60 58 57 60 69 83 86 85 86 83 77 74 70 63 59 56 54 56 57 58 70 155 182 187 197 200 189 178
101 100 100 99 99 97 96 95 95 94 93 93 93 91 90 87 84 82 80 78 76 73 71 70 68 66 64 63 62 61 61 61 62 62 63 62 62 61 62 61 60 60 60 58 57 55 53 51 49 47 46 46 45 45 46 48 51 53 54 59 65 71 76 77 77 78 75 71 70 68 62 59 55 50 49 48 46 48 69 122 164 186 188 182 178
98 96 95 94 94 95 95 95 95 94 94 93 93 92 91 89 86 83 82 79 76 73 70 68 67 64 62 61 60 60 60 60 61 61 61 60 60 60 59 59 58 59 59 57 55 53 52 50 49 48 48 47 46 46 45 45 45 45 46 51 58 63 66 65 62 62 63 63 62 61 61 63 61 56 53 51 49 52 63 78 97 116 127 135 146
98 96 94 92 91 91 91 92 92 92 92 92 91 89 88 87 85 82 80 78 75 71 67 65 64 61 59 59 59 60 60 61 60 60 59 58 57 57 56 55 54 54 56 55 52 49 47 45 46 47 48 48 49 48 48 45 43 41 40 40 45 50 53 53 52 51 50 50 50 49 52 61 67 66 62 62 65 70 73 76 82 89 96 100 105
100 97 95 93 92 91 90 89 88 87 87 87 87 87 86 86 84 81 79 78 75 70 66 64 62 61 59 57 57 59 62 63 63 62 61 59 58 57 56 55 53 52 54 55 52 50 47 45 46 47 47 47 48 49 49 47 44 43 41 39 37 38 38 40 43 43 41 40 40 41 44 54 71 76 69 65 71 78 81 83 85 86 89 89 90
104 102 99 97 95 93 91 89 87 85 83 83 83 84 84 85 84 82 80 77 74 71 68 65 63 61 59 57 57 59 62 64 64 64 63 62 62 62 61 59 58 58 59 60 58 55 51 49 48 49 49 48 47 47 46 46 46 45 44 43 42 39 36 35 37 39 38 34 32 34 39 44 55 72 77 79 81 78 77 81 85 86 87 86 85
110 108 105 102 99 95 93 91 89 87 84 82 81 80 80 81 82 80 78 77 75 72 69 67 64 60 58 58 61 63 64 63 63 63 62 62 62 63 63 61 60 60 62 62 60 57 53 51 50 49 49 49 49 48 45 44 45 45 44 44 43 42 41 40 41 42 41 37 32 31 35 38 39 44 53 68 89 97 89 85 92 94 93 93 92
117 115 112 107 103 99 97 94 92 90 87 84 82 79 76 76 77 77 77 77 77 76 73 68 62 58 57 59 64 66 64 62 61 60 61 62 63 64 64 62 61 61 63 62 60 58 56 55 54 51 49 47 46 44 43 43 44 43 42 41 40 39 39 38 38 39 40 39 36 31 29 30 32 35 36 36 37 65 101 114 114 108 108 111 105
122 120 116 112 108 105 102 99 96 93 91 88 86 82 79 76 76 78 79 79 80 79 75 69 64 61 60 62 65 67 66 64 64 62 61 62 62 60 59 59 60 64 65 64 61 58 56 55 54 51 50 48 44 41 39 38 38 38 37 37 36 36 35 32 29 31 36 39 37 34 30 24 23 27 31 29 22 21 71 128 135 121 114 115 111
125 124 120 116 114 111 108 105 102 99 96 94 92 89 86 82 81 82 82 82 81 79 74 70 68 67 68 68 68 70 72 72 70 66 64 63 61 58 55 54 55 59 61 60 59 58 56 55 53 51 49 48 44 40 38 36 34 33 33 35 35 34 32 31 30 32 42 50 48 46 47 39 27 25 27 27 24 17 23 113 144 141 126 122 120
130 128 125 122 119 117 115 113 109 105 101 99 97 97 94 90 86 85 84 83 81 78 74 72 69 68 70 72 73 74 76 76 72 68 66 65 63 61 58 55 52 51 50 52 55 56 54 52 52 50 50 48 44 40 38 36 34 32 32 32 33 31 29 29 31 36 45 51 49 46 48 43 32 28 25 22 26 25 18 103 163 158 141 131 126
136 135 132 129 126 123 122 120 117 113 108 104 102 101 100 97 93 89 86 83 80 76 73 72 71 69 70 72 73 73 74 73 71 69 68 67 65 63 62 59 56 52 50 51 53 52 48 48 48 48 47 45 40 38 38 35 32 32 32 29 28 29 30 30 32 34 37 39 36 33 34 33 26 24 24 22 29 34 34 112 176 168 152 139 131
132 135 137 137 135 133 131 129 127 123 116 109 104 102 101 100 99 96 91 85 81 79 78 76 74 72 70 70 71 71 70 67 65 64 62 61 59 58 58 60 59 54 51 53 54 50 46 45 45 45 44 40 35 34 36 33 31 34 35 29 26 27 28 28 29 31 33 34 32 27 26 26 23 23 27 36 40 38 47 89 143 156 154 144 134
126 128 130 134 136 138 138 136 135 132 127 119 111 103 99 99 100 101 98 91 85 84 85 84 80 75 71 67 67 68 67 65 61 57 53 51 50 50 53 57 60 57 54 56 56 52 47 45 45 45 45 41 35 33 34 34 36 39 39 36 33 31 28 26 26 29 33 33 30 28 26 25 27 29 34 48 63 65 75 96 119 134 139 137 136
124 124 125 127 128 131 134 132 129 129 130 128 121 110 102 98 99 101 100 95 89 88 90 90 85 78 71 65 62 63 65 64 61 56 51 48 49 51 51 52 53 55 56 58 57 53 48 46 43 43 44 43 39 37 37 39 42 43 44 44 45 44 42 40 36 34 32 29 28 26 24 25 40 56 54 54 63 81 94 99 103 110 116 121 130
127 128 128 128 125 124 125 124 121 122 124 126 124 118 108 101 101 102 102 99 95 93 94 94 90 82 73 67 63 63 64 63 61 57 53 50 49 51 50 48 48 52 56 58 56 52 48 45 41 40 42 41 37 36 37 42 46 47 47 46 46 45 45 45 44 42 38 33 29 23 21 36 70 76 64 60 62 79 104 111 110 110 116 122 129
133 133 131 130 127 125 125 125 123 122 122 124 126 122 113 106 104 104 104 103 100 97 95 95 94 88 78 70 65 64 66 66 63 61 57 53 51 52 51 47 46 50 56 57 52 48 45 44 42 40 39 37 35 32 31 35 42 45 45 43 42 42 40 39 40 41 40 41 39 30 31 73 101 85 68 71 74 81 107 122 124 127 133 137 137
140 139 136 133 131 129 129 131 129 126 124 126 130 129 122 114 110 108 106 105 103 102 101 100 98 94 87 78 70 67 67 67 64 61 59 54 53 54 53 48 47 50 53 52 47 44 42 40 40 40 37 34 33 32 29 29 31 35 37 37 36 37 36 34 33 34 35 38 42 43 53 92 113 106 96 100 100 101 114 127 132 134 136 137 141
140 140 138 137 137 136 137 137 134 128 124 125 130 134 132 125 118 113 111 108 107 105 104 102 100 99 97 93 83 73 71 69 64 61 58 54 53 53 52 50 50 52 52 49 44 40 37 35 34 36 35 30 29 30 31 29 27 27 28 30 30 30 32 32 31 30 28 29 35 42 54 79 107 115 115 116 114 113 114 120 131 137 138 139 145
139 139 137 135 134 135 137 138 138 136 130 123 122 128 134 135 130 123 117 114 113 110 104 99 100 100 100 102 92 78 75 75 71 65 58 52 51 51 50 50 51 51 51 51 48 42 37 33 30 28 26 23 22 25 26 27 27 25 24 25 27 28 30 29 28 29 28 25 25 31 41 58 85 100 103 104 107 111 116 120 132 145 148 150 152
146 147 148 144 136 131 128 128 134 142 140 128 118 116 122 130 135 136 133 128 124 120 112 104 103 103 101 101 94 81 78 80 78 71 59 49 47 47 46 48 50 49 48 49 50 48 44 39 34 29 25 22 22 23 21 20 22 22 20 21 24 26 28 27 24 25 27 26 23 24 30 41 58 73 85 100 106 107 107 111 119 130 137 144 151
151 151 154 154 150 143 133 123 124 134 141 139 132 125 123 128 136 142 147 148 142 133 125 118 119 120 112 102 95 90 85 82 80 73 61 51 46 45 42 43 46 46 43 44 47 47 45 43 40 34 29 26 25 23 20 19 20 21 21 21 21 19 19 19 17 15 18 22 21 20 25 33 40 48 61 95 127 134 126 116 111 106 100 107 134
153 147 146 148 152 156 151 136 129 133 138 140 139 135 129 129 133 140 150 161 163 158 149 140 150 159 153 132 119 118 105 86 81 75 60 49 46 44 40 39 43 44 39 36 39 39 38 40 41 38 33 29 25 19 16 16 17 18 15 13 12 9 5 4 4 2 3 8 9 11 21 30 34 40 50 67 102 133 146 152 144 122 99 97 119
159 148 145 146 148 152 154 149 142 141 142 143 144 142 135 127 126 132 148 168 184 208 235 249 240 216 203 193 169 148 137 101 85 92 61 36 32 27 24 28 38 42 35 29 32 32 28 30 35 35 34 32 29 23 16 10 6 6 5 1 0 359 357 356 356 354 353 354 355 356 7 22 28 33 45 59 78 108 142 180 188 167 139 132 135
168 158 151 152 151 151 153 154 153 152 154 157 162 163 159 150 137 123 108 66 322 291 253 228 216 202 192 194 193 189 196 209 72 99 123 25 19 1 352 4 23 33 27 21 21 20 16 18 23 24 27 30 31 29 25 18 10 7 8 5 360 358 357 355 354 352 349 348 349 345 346 4 17 24 36 52 68 95 128 151 171 174 166 161 161
176 170 163 161 163 163 163 166 169 168 167 171 176 179 183 186 178 156 92 59 58 67 112 160 167 160 156 163 171 174 180 185 156 126 133 91 17 344 334 340 355 9 12 12 13 10 3 1 7 10 15 22 27 28 28 26 22 18 17 13 7 2 359 355 353 352 348 345 345 343 332 331 350 4 15 37 62 81 95 107 130 159 173 178 184
184 181 177 175 175 175 175 176 179 178 175 176 182 189 199 205 206 206 189 117 105 109 127 148 154 151 148 147 146 144 150 161 164 159 153 48 357 342 333 330 329 337 347 353 1 6 0 354 351 351 356 7 17 22 26 28 27 25 23 20 13 8 4 358 354 352 348 344 342 338 326 311 309 325 340 355 25 58 70 77 88 125 183 199 208
192 191 190 187 183 182 181 179 178 179 179 175 175 177 178 176 177 181 174 137 118 123 138 149 153 153 149 142 144 162 177 175 160 156 158 354 343 338 339 338 328 323 326 327 330 343 353 351 343 336 335 343 356 7 16 22 25 24 24 23 19 13 8 3 356 351 348 345 341 336 327 310 290 283 298 308 308 319 357 35 34 29 267 224 231
188 194 196 193 187 185 185 182 181 184 183 174 166 161 156 154 155 158 156 143 130 130 141 152 158 160 157 152 156 177 188 188 185 175 166 338 323 312 315 333 331 322 320 319 316 317 325 332 330 326 323 325 333 346 359 7 12 14 17 19 17 13 10 6 360 354 351 347 342 338 330 315 287 265 261 269 275 282 286 285 296 333 8 308 250
170 184 194 195 193 194 195 193 191 195 196 187 174 167 166 171 175 174 172 169 161 156 157 163 167 169 171 172 171 176 187 199 202 199 197 258 275 261 265 301 321 320 319 319 316 311 309 311 312 312 313 313 315 326 343 351 355 0 8 10 9 7 5 4 2 359 355 351 347 343 336 323 293 262 258 268 271 271 277 277 274 276 287 305 295
168 176 187 191 192 196 197 195 195 200 203 197 189 188 195 201 199 195 195 197 194 189 187 187 185 184 187 192 200 218 232 221 204 200 216 253 253 243 265 301 312 308 306 311 316 313 308 305 305 305 307 308 306 313 332 341 341 342 351 359 359 358 358 358 360 360 358 354 351 348 343 332 305 266 262 286 295 286 285 287 281 273 272 272 270